Location: Shepherdstown, WV
(39.4326°N, 77.8042°W)
Time: 14:13:27
(UTC-04:00)

Tiros 1 despin weight - Pass Details

Date: 26 July 2021
Orbit: 593 x 641 km, 48.2° (Epoch: 22 September)

Event Time Altitude Azimuth Distance (km) Brightness Sun altitude
Rises 21:54:55 0° 301° (WNW) 2,930 ? -14.7°
Reaches altitude 10° 21:57:17 10° 304° (WNW) 2,014 ? -15.0°
Maximum altitude 22:01:55 75° 30° (NNE) 650 ? -15.7°
Enters shadow 22:04:22 27° 111° (ESE) 1,198 ? -16.0°
